GW0326 Weather Reports


Display with metric or nautical units.
time (UTC)temp
F
wind
direction
speed
MPH
gust
MPH
rain 1hr
in
rain 24hr
in
rain mn
in
humidity
%
barometer
mb
20260905182547 80 42 3.0 13.0 0.00 0.00 0.00 27 1026.2
20260905182046 80 28 6.0 13.0 0.00 0.00 0.00 27 1026.2
20260905181603 80 28 4.0 13.0 0.00 0.00 0.00 28 1026.3
20260905181044 80 55 6.0 13.0 0.00 0.00 0.00 29 1026.2
20260905180545 80 55 4.0 11.0 0.00 0.00 0.00 30 1026.3
20260905180100 79 40 3.0 11.0 0.00 0.00 0.00 29 1026.4
20260905175546 78 61 1.0 12.0 0.00 0.00 0.00 31 1026.3
20260905175048 79 51 1.0 13.0 0.00 0.00 0.00 29 1026.3
20260905174559 79 0 2.0 13.0 0.00 0.00 0.00 28 1026.3
20260905174044 80 52 1.0 8.0 0.00 0.00 0.00 26 1026.2
20260905173545 80 51 0.0 8.0 0.00 0.00 0.00 28 1026.2
20260905173057 80 0 0.0 8.0 0.00 0.00 0.00 27 1026.3
20260905172544 81 40 0.0 6.0 0.00 0.00 0.00 26 1026.3
20260905172046 81 200 0.0 4.0 0.00 0.00 0.00 26 1026.2
20260905171551 81 0 0.0 5.0 0.00 0.00 0.00 23 1026.3
20260905171044 80 0 0.0 5.0 0.00 0.00 0.00 24 1026.3
20260905170553 80 0 0.0 3.0 0.00 0.00 0.00 24 1026.2
20260905170113 80 0 0.0 3.0 0.00 0.00 0.00 23 1026.1
20260905165545 80 0 0.0 4.0 0.00 0.00 0.00 23 1025.9
20260905165046 80 0 0.0 10.0 0.00 0.00 0.00 24 1026.0
20260905164559 80 250 0.0 10.0 0.00 0.00 0.00 24 1026.1
20260905164045 80 263 0.0 6.0 0.00 0.00 0.00 25 1026.1
20260905163544 79 0 1.0 6.0 0.00 0.00 0.00 25 1026.0
20260905163052 79 0 0.0 8.0 0.00 0.00 0.00 25 1025.9
20260905162546 78 271 0.0 8.0 0.00 0.00 0.00 26 1026.0
20260905162045 78 0 0.0 5.0 0.00 0.00 0.00 26 1025.9
20260905161553 78 220 0.0 7.0 0.00 0.00 0.00 26 1025.9
20260905161045 78 219 1.0 9.0 0.00 0.00 0.00 27 1025.9
20260905160544 78 0 2.0 9.0 0.00 0.00 0.00 27 1025.9
20260905160100 78 264 1.0 10.0 0.00 0.00 0.00 27 1026.0
20260905155548 77 207 1.0 10.0 0.00 0.00 0.00 28 1026.1
20260905155046 77 213 2.0 9.0 0.00 0.00 0.00 28 1026.1
20260905154557 77 319 2.0 8.0 0.00 0.00 0.00 29 1026.0
20260905154046 76 306 2.0 8.0 0.00 0.00 0.00 29 1026.0
20260905153545 76 213 1.0 7.0 0.00 0.00 0.00 29 1026.0
20260905153056 76 0 1.0 7.0 0.00 0.00 0.00 30 1025.9
20260905152546 76 238 1.0 8.0 0.00 0.00 0.00 30 1026.0
20260905152045 75 0 2.0 9.0 0.00 0.00 0.00 30 1025.9
20260905151603 75 0 2.0 9.0 0.00 0.00 0.00 31 1025.9
20260905151043 75 291 1.0 8.0 0.00 0.00 0.00 31 1025.9
20260905150544 74 257 2.0 8.0 0.00 0.00 0.00 32 1025.9
20260905150058 74 0 1.0 10.0 0.00 0.00 0.00 32 1025.9
20260905145546 74 261 2.0 10.0 0.00 0.00 0.00 33 1026.0
20260905145046 73 263 1.0 9.0 0.00 0.00 0.00 34 1026.0
20260905144556 72 198 1.0 9.0 0.00 0.00 0.00 34 1026.1
20260905144047 72 277 2.0 9.0 0.00 0.00 0.00 34 1026.1
20260905143545 71 0 1.0 8.0 0.00 0.00 0.00 34 1026.1
20260905143103 71 263 2.0 8.0 0.00 0.00 0.00 35 1026.1
20260905142547 70 252 0.0 5.0 0.00 0.00 0.00 35 1026.0
20260905142126 70 0 0.0 8.0 0.00 0.00 0.00 35 1026.1
20260905141623 70 0 0.0 11.0 0.00 0.00 0.00 36 1026.1
20260905141049 69 251 1.0 11.0 0.00 0.00 0.00 36 1026.2
20260905140547 69 207 1.0 9.0 0.00 0.00 0.00 37 1026.0
20260905140058 68 0 0.0 3.0 0.00 0.00 0.00 37 1025.9
20260905135549 68 0 0.0 3.0 0.00 0.00 0.00 38 1025.9
20260905135050 67 0 0.0 3.0 0.00 0.00 0.00 38 1025.9
20260905134557 67 0 0.0 3.0 0.00 0.00 0.00 38 1025.7
20260905134046 66 0 0.0 3.0 0.00 0.00 0.00 39 1025.7
20260905133545 66 0 0.0 4.0 0.00 0.00 0.00 39 1025.8
20260905133059 66 0 0.0 4.0 0.00 0.00 0.00 39 1025.7
20260905132547 65 0 0.0 4.0 0.00 0.00 0.00 40 1025.7
20260905132045 65 0 0.0 4.0 0.00 0.00 0.00 40 1025.7
20260905131601 64 0 0.0 4.0 0.00 0.00 0.00 40 1025.7
20260905131048 64 0 0.0 4.0 0.00 0.00 0.00 40 1025.5
20260905130547 64 0 0.0 5.0 0.00 0.00 0.00 40 1025.6
20260905130101 64 0 0.0 5.0 0.00 0.00 0.00 40 1025.5
20260905125545 63 0 0.0 12.0 0.00 0.00 0.00 40 1025.5
20260905125046 63 0 1.0 12.0 0.00 0.00 0.00 41 1025.4
20260905124558 63 285 0.0 8.0 0.00 0.00 0.00 41 1025.4
20260905124044 63 0 0.0 5.0 0.00 0.00 0.00 41 1025.2
20260905123546 63 0 0.0 12.0 0.00 0.00 0.00 40 1025.2
20260905123111 63 0 1.0 12.0 0.00 0.00 0.00 40 1025.1
20260905122546 63 279 0.0 4.0 0.00 0.00 0.00 40 1024.9
20260905122047 63 0 0.0 4.0 0.00 0.00 0.00 40 1025.0
20260905121558 63 0 0.0 5.0 0.00 0.00 0.00 41 1024.9
20260905121044 63 0 0.0 5.0 0.00 0.00 0.00 41 1024.9
20260905120547 63 0 0.0 1.0 0.00 0.00 0.00 41 1025.0
20260905120057 63 0 0.0 2.0 0.00 0.00 0.00 40 1025.0
20260905115545 63 0 0.0 2.0 0.00 0.00 0.00 40 1025.1
20260905115046 64 0 0.0 3.0 0.00 0.00 0.00 40 1025.2
20260905114606 64 0 0.0 9.0 0.00 0.00 0.00 40 1025.1
20260905114044 64 0 1.0 9.0 0.00 0.00 0.00 40 1025.2
20260905113548 64 0 0.0 6.0 0.00 0.00 0.00 40 1025.1
20260905113110 64 258 1.0 8.0 0.00 0.00 0.00 40 1025.0
20260905112545 64 0 1.0 8.0 0.00 0.00 0.00 40 1025.0
20260905112050 64 0 1.0 4.0 0.00 0.00 0.00 40 1025.1
20260905111602 64 262 1.0 4.0 0.00 0.00 0.00 40 1025.1
20260905111047 64 0 0.0 6.0 0.00 0.00 0.00 41 1025.1
20260905110544 64 0 1.0 9.0 0.00 0.00 0.00 41 1025.0
20260905110055 64 0 2.0 9.0 0.00 0.00 0.00 41 1025.1
20260905105544 64 251 1.0 6.0 0.00 0.00 0.00 42 1025.0
20260905105048 64 0 1.0 6.0 0.00 0.00 0.00 42 1025.1
20260905104550 64 360 0.0 5.0 0.00 0.00 0.00 43 1025.0
20260905104049 64 0 0.0 4.0 0.00 0.00 0.00 43 1024.9
20260905103544 63 263 1.0 4.0 0.00 0.00 0.00 43 1024.8
20260905103102 63 0 0.0 4.0 0.00 0.00 0.00 43 1024.8
20260905102547 64 0 0.0 4.0 0.00 0.00 0.00 44 1024.8
20260905102044 64 0 0.0 6.0 0.00 0.00 0.00 44 1024.7
20260905101622 64 306 0.0 7.0 0.00 0.00 0.00 43 1024.7
20260905101050 64 0 1.0 7.0 0.00 0.00 0.00 43 1024.7
20260905100546 64 265 1.0 7.0 0.00 0.00 0.00 43 1024.6
20260905100059 64 0 0.0 8.0 0.00 0.00 0.00 43 1024.7
20260905095544 65 0 0.0 8.0 0.00 0.00 0.00 43 1024.6
20260905095045 64 0 0.0 6.0 0.00 0.00 0.00 43 1024.7
20260905094558 64 0 0.0 6.0 0.00 0.00 0.00 44 1024.7
20260905094047 64 0 0.0 3.0 0.00 0.00 0.00 44 1024.6
20260905093545 64 290 0.0 8.0 0.00 0.00 0.00 44 1024.6
20260905093050 64 0 0.0 8.0 0.00 0.00 0.00 44 1024.4
20260905092545 64 0 0.0 8.0 0.00 0.00 0.00 44 1024.5
20260905092044 64 0 0.0 7.0 0.00 0.00 0.00 44 1024.5
20260905091616 64 296 0.0 7.0 0.00 0.00 0.00 44 1024.5
20260905091048 64 294 0.0 8.0 0.00 0.00 0.00 44 1024.4
20260905090546 64 0 0.0 8.0 0.00 0.00 0.00 44 1024.4
20260905090056 64 0 0.0 8.0 0.00 0.00 0.00 45 1024.4
20260905085545 64 0 0.0 7.0 0.00 0.00 0.00 45 1024.4
20260905085045 64 279 0.0 3.0 0.00 0.00 0.00 45 1024.4
20260905084614 63 0 0.0 5.0 0.00 0.00 0.00 45 1024.4
20260905084045 63 0 0.0 5.0 0.00 0.00 0.00 45 1024.4
20260905083546 63 0 0.0 3.0 0.00 0.00 0.00 45 1024.4
20260905083050 63 0 0.0 5.0 0.00 0.00 0.00 45 1024.3
20260905082546 63 0 0.0 5.0 0.00 0.00 0.00 45 1024.3
20260905082046 63 0 0.0 5.0 0.00 0.00 0.00 45 1024.4
20260905081559 63 0 0.0 3.0 0.00 0.00 0.00 45 1024.4
20260905081044 63 301 0.0 4.0 0.00 0.00 0.00 46 1024.3
20260905080545 63 0 0.0 7.0 0.00 0.00 0.00 46 1024.4
20260905080056 63 310 0.0 7.0 0.00 0.00 0.00 46 1024.4
20260905075547 63 0 0.0 8.0 0.00 0.00 0.00 46 1024.5
20260905075046 63 0 0.0 8.0 0.00 0.00 0.00 45 1024.4
20260905074555 63 0 0.0 2.0 0.00 0.00 0.00 45 1024.4
20260905074046 63 0 0.0 2.0 0.00 0.00 0.00 45 1024.4
20260905073550 63 0 0.0 5.0 0.00 0.00 0.00 45 1024.5
20260905073100 63 0 0.0 6.0 0.00 0.00 0.00 45 1024.4
20260905072549 63 0 0.0 6.0 0.00 0.00 0.00 45 1024.4
20260905072049 63 0 0.0 2.0 0.00 0.00 0.00 45 1024.4
20260905071601 63 0 0.0 2.0 0.00 0.00 0.00 44 1024.4
20260905071046 64 274 0.0 2.0 0.00 0.00 0.00 44 1024.4
20260905070545 64 0 0.0 2.0 0.00 0.00 0.00 44 1024.5
20260905070106 64 0 0.0 3.0 0.00 0.00 0.00 44 1024.4
20260905065547 64 0 0.0 3.0 0.00 0.00 0.00 44 1024.4
20260905065045 64 0 0.0 3.0 0.00 0.00 0.00 44 1024.5
20260905064550 64 252 0.0 6.0 0.00 0.00 0.00 44 1024.4
20260905064049 64 0 0.0 6.0 0.00 0.00 0.00 44 1024.4
20260905063545 64 0 0.0 4.0 0.00 0.00 0.00 44 1024.4
20260905063059 64 0 0.0 7.0 0.00 0.00 0.00 43 1024.4
20260905062545 64 0 0.0 7.0 0.00 0.00 0.00 43 1024.4
20260905062046 64 0 1.0 7.0 0.00 0.00 0.00 44 1024.4
20260905061607 64 0 0.0 6.0 0.00 0.00 0.00 44 1024.4
20260905061049 64 0 0.0 7.0 0.00 0.00 0.00 44 1024.5
20260905060545 64 242 0.0 7.0 0.00 0.00 0.00 44 1024.4
20260905060057 64 0 1.0 7.0 0.00 0.00 0.00 45 1024.5
20260905055543 63 0 0.0 6.0 0.00 0.00 0.00 44 1024.3
20260905055046 63 0 0.0 6.0 0.00 0.00 0.00 45 1024.3
20260905054553 63 38 0.0 0.0 0.00 0.00 0.00 44 1024.4
20260905054045 63 0 0.0 0.0 0.00 0.00 0.00 43 1024.4
20260905053547 63 0 0.0 1.0 0.00 0.00 0.00 43 1024.4
20260905053111 63 0 0.0 1.0 0.00 0.00 0.00 43 1024.3
20260905052549 63 0 0.0 0.0 0.00 0.00 0.00 44 1024.3
20260905052052 63 0 0.0 0.0 0.00 0.00 0.00 44 1024.4
20260905051558 63 0 0.0 0.0 0.00 0.00 0.00 43 1024.3
20260905051045 63 0 0.0 0.0 0.00 0.00 0.00 43 1024.3
20260905050550 63 0 0.0 0.0 0.00 0.00 0.00 43 1024.4
20260905050059 63 0 0.0 0.0 0.00 0.00 0.00 44 1024.4
20260905045547 63 0 0.0 0.0 0.00 0.00 0.00 44 1024.4
20260905045046 63 0 0.0 0.0 0.00 0.00 0.00 44 1024.4
20260905044555 63 0 0.0 0.0 0.00 0.00 0.00 44 1024.4
20260905044049 64 0 0.0 0.0 0.00 0.00 0.00 43 1024.4
20260905043547 64 0 0.0 0.0 0.00 0.00 0.00 43 1024.5
20260905043100 64 0 0.0 0.0 0.00 0.00 0.00 43 1024.6
20260905042549 64 0 0.0 0.0 0.00 0.00 0.00 43 1024.5
20260905042046 64 0 0.0 0.0 0.00 0.00 0.00 42 1024.6
20260905041558 65 0 0.0 0.0 0.00 0.00 0.00 42 1024.7
20260905041045 65 0 0.0 0.0 0.00 0.00 0.00 41 1024.7
20260905040547 66 0 0.0 0.0 0.00 0.00 0.00 41 1024.7
20260905040055 66 0 0.0 0.0 0.00 0.00 0.00 41 1024.7
20260905035546 66 0 0.0 0.0 0.00 0.00 0.00 41 1024.8
20260905035046 66 0 0.0 0.0 0.00 0.00 0.00 41 1024.8
20260905034602 66 0 0.0 0.0 0.00 0.00 0.00 41 1024.9
20260905034046 66 0 0.0 0.0 0.00 0.00 0.00 40 1024.9
20260905033546 67 0 0.0 0.0 0.00 0.00 0.00 40 1024.8
20260905033101 67 0 0.0 0.0 0.00 0.00 0.00 40 1024.8
20260905032547 67 0 0.0 0.0 0.00 0.00 0.00 40 1024.8
20260905032049 67 0 0.0 0.0 0.00 0.00 0.00 40 1024.8
20260905031600 67 0 0.0 0.0 0.00 0.00 0.00 39 1024.7
20260905031047 68 0 0.0 0.0 0.00 0.00 0.00 39 1024.7
20260905030546 68 0 0.0 0.0 0.00 0.00 0.00 39 1024.7
20260905030100 68 0 0.0 0.0 0.00 0.00 0.00 39 1024.7
20260905025545 68 0 0.0 0.0 0.00 0.00 0.00 39 1024.7
20260905025047 69 0 0.0 0.0 0.00 0.00 0.00 38 1024.6
20260905024626 69 0 0.0 0.0 0.00 0.00 0.00 38 1024.6
20260905024052 69 0 0.0 0.0 0.00 0.00 0.00 38 1024.5
20260905023550 69 0 0.0 0.0 0.00 0.00 0.00 38 1024.5
20260905023105 69 0 0.0 0.0 0.00 0.00 0.00 38 1024.5
20260905022545 69 0 0.0 0.0 0.00 0.00 0.00 38 1024.4
20260905022045 68 0 0.0 0.0 0.00 0.00 0.00 38 1024.4
20260905021557 68 0 0.0 0.0 0.00 0.00 0.00 38 1024.3
20260905021046 68 0 0.0 0.0 0.00 0.00 0.00 38 1024.3
20260905020547 69 0 0.0 0.0 0.00 0.00 0.00 37 1024.3
20260905020056 69 0 0.0 0.0 0.00 0.00 0.00 37 1024.2
20260905015546 69 0 0.0 0.0 0.00 0.00 0.00 36 1024.2
20260905015045 70 0 0.0 0.0 0.00 0.00 0.00 36 1024.2
20260905014556 70 0 0.0 0.0 0.00 0.00 0.00 35 1024.2
20260905014049 71 0 0.0 0.0 0.00 0.00 0.00 34 1024.1
20260905013546 71 0 0.0 0.0 0.00 0.00 0.00 34 1024.0
20260905013059 72 0 0.0 0.0 0.00 0.00 0.00 33 1024.0
20260905012546 73 0 0.0 0.0 0.00 0.00 0.00 32 1023.9
20260905012047 74 0 0.0 0.0 0.00 0.00 0.00 31 1023.9
20260905011601 74 0 0.0 0.0 0.00 0.00 0.00 31 1023.9
20260905011048 75 0 0.0 2.0 0.00 0.00 0.00 30 1023.9
20260905010547 76 0 0.0 2.0 0.00 0.00 0.00 30 1024.0
20260905010100 76 0 0.0 3.0 0.00 0.00 0.00 29 1023.9
20260905005545 76 0 0.0 8.0 0.00 0.00 0.00 29 1023.8
20260905005047 77 0 0.0 8.0 0.00 0.00 0.00 28 1023.9
20260905004606 77 0 0.0 8.0 0.00 0.00 0.00 28 1023.8
20260905004047 77 0 0.0 3.0 0.00 0.00 0.00 27 1023.8
20260905003549 78 0 0.0 3.0 0.00 0.00 0.00 26 1023.8
20260905003100 78 0 0.0 1.0 0.00 0.00 0.00 26 1023.8
20260905002546 78 0 0.0 1.0 0.00 0.00 0.00 26 1023.7
20260905002050 78 0 0.0 0.0 0.00 0.00 0.00 25 1023.7
20260905001600 78 0 0.0 0.0 0.00 0.00 0.00 23 1023.7
20260905001049 78 0 0.0 0.0 0.00 0.00 0.00 23 1023.6
20260905000546 78 0 0.0 2.0 0.00 0.00 0.00 23 1023.6
20260905000058 79 0 0.0 2.0 0.00 0.00 0.00 23 1023.5
20260904235546 79 0 0.0 2.0 0.00 0.00 0.00 22 1023.5
20260904235047 79 0 0.0 0.0 0.00 0.00 0.00 22 1023.5
20260904234556 79 0 0.0 0.0 0.00 0.00 0.00 22 1023.5
20260904234045 79 0 0.0 2.0 0.00 0.00 0.00 22 1023.5
20260904233547 80 0 0.0 5.0 0.00 0.00 0.00 22 1023.5
20260904233104 80 0 0.0 9.0 0.00 0.00 0.00 22 1023.5
20260904232547 80 0 1.0 9.0 0.00 0.00 0.00 21 1023.4
20260904232044 80 39 1.0 10.0 0.00 0.00 0.00 22 1023.4
20260904231557 80 0 1.0 10.0 0.00 0.00 0.00 22 1023.4
20260904231050 80 0 0.0 7.0 0.00 0.00 0.00 22 1023.3
20260904230547 80 0 0.0 4.0 0.00 0.00 0.00 22 1023.3
20260904230058 80 0 0.0 4.0 0.00 0.00 0.00 21 1023.3
20260904225546 80 0 0.0 0.0 0.00 0.00 0.00 21 1023.2
20260904225046 80 0 0.0 0.0 0.00 0.00 0.00 21 1023.2
20260904224558 80 0 0.0 4.0 0.00 0.00 0.00 22 1023.2
20260904224048 80 0 0.0 4.0 0.00 0.00 0.00 21 1023.3
20260904223547 81 0 0.0 4.0 0.00 0.00 0.00 21 1023.2
20260904223109 81 0 0.0 3.0 0.00 0.00 0.00 21 1023.3
20260904222552 82 0 0.0 10.0 0.00 0.00 0.00 20 1023.2
20260904222046 82 0 0.0 11.0 0.00 0.00 0.00 20 1023.2
20260904221605 82 0 4.0 11.0 0.00 0.00 0.00 20 1023.1
20260904221047 82 63 1.0 10.0 0.00 0.00 0.00 21 1023.2
20260904220548 82 0 0.0 9.0 0.00 0.00 0.00 20 1023.2
20260904215548 82 0 1.0 9.0 0.00 0.00 0.00 20 1023.2
20260904215044 82 0 0.0 6.0 0.00 0.00 0.00 20 1023.2
20260904214609 82 77 1.0 6.0 0.00 0.00 0.00 20 1023.2
20260904214048 82 0 0.0 10.0 0.00 0.00 0.00 20 1023.2
20260904213547 82 0 0.0 11.0 0.00 0.00 0.00 20 1023.2
20260904213101 82 0 2.0 11.0 0.00 0.00 0.00 20 1023.2
20260904212545 82 76 1.0 10.0 0.00 0.00 0.00 20 1023.2
20260904212044 82 71 2.0 10.0 0.00 0.00 0.00 20 1023.3
20260904211605 82 0 3.0 10.0 0.00 0.00 0.00 20 1023.2
20260904211046 82 0 2.0 9.0 0.00 0.00 0.00 20 1023.2
20260904210545 82 0 1.0 10.0 0.00 0.00 0.00 20 1023.4
20260904210056 82 84 1.0 10.0 0.00 0.00 0.00 20 1023.3
20260904205547 82 59 3.0 9.0 0.00 0.00 0.00 20 1023.4
20260904205046 82 57 0.0 5.0 0.00 0.00 0.00 20 1023.5
20260904204558 82 87 1.0 10.0 0.00 0.00 0.00 20 1023.4
20260904204048 82 0 0.0 10.0 0.00 0.00 0.00 20 1023.5
20260904203547 81 38 3.0 10.0 0.00 0.00 0.00 20 1023.5
20260904203102 81 202 0.0 5.0 0.00 0.00 0.00 21 1023.7
20260904202545 80 52 0.0 6.0 0.00 0.00 0.00 21 1023.7
20260904202045 80 0 0.0 6.0 0.00 0.00 0.00 22 1023.8
20260904201604 80 0 1.0 5.0 0.00 0.00 0.00 22 1023.9
20260904201046 80 0 0.0 4.0 0.00 0.00 0.00 22 1023.8
20260904200546 80 80 0.0 4.0 0.00 0.00 0.00 21 1023.9
20260904200100 80 0 0.0 4.0 0.00 0.00 0.00 21 1023.9
20260904195545 81 0 0.0 5.0 0.00 0.00 0.00 21 1023.9
20260904195047 81 0 1.0 10.0 0.00 0.00 0.00 21 1023.9
20260904194559 81 132 1.0 10.0 0.00 0.00 0.00 21 1024.0
20260904194047 81 72 1.0 10.0 0.00 0.00 0.00 21 1024.0
20260904193547 81 78 1.0 5.0 0.00 0.00 0.00 21 1024.1
20260904193101 80 0 0.0 5.0 0.00 0.00 0.00 21 1024.0
20260904192544 80 110 1.0 7.0 0.00 0.00 0.00 21 1024.0
20260904192140 81 137 2.0 9.0 0.00 0.00 0.00 22 1024.1
20260904191600 81 86 3.0 9.0 0.00 0.00 0.00 22 1024.0
20260904191042 80 68 3.0 9.0 0.00 0.00 0.00 22 1024.1
20260904190545 80 164 1.0 15.0 0.00 0.00 0.00 22 1024.1
20260904190108 80 0 2.0 15.0 0.00 0.00 0.00 22 1024.2
20260904185543 81 67 0.0 6.0 0.00 0.00 0.00 22 1024.2
20260904185044 81 49 1.0 12.0 0.00 0.00 0.00 22 1024.2
20260904184607 81 107 3.0 12.0 0.00 0.00 0.00 22 1024.2
20260904184043 80 139 1.0 11.0 0.00 0.00 0.00 24 1024.2
20260904183545 79 46 2.0 11.0 0.00 0.00 0.00 24 1024.2
20260904183101 79 0 0.0 6.0 0.00 0.00 0.00 24 1024.3